When you browse on this site, cookies collect data to enhance your experience and personalize the content and advertising you see.
Visit our Privacy Policy to learn more. By continuing to use the site, you agree to this use of cookies and data.
  • In Czech Republic
  • List of Countries
  • For 7 days
  • Water Temperature
  • Satellite Maps
  • Weather Map
  • Weather Widgets
  • user-avatar
    Login

    Hourly Weather Arganda del Rey

    Today, 13 December, Thursday

    Time Temperature Precipitation Wind Pressure Humidity
    00:00 +7°C° 0 mm 4 mps 705 mmHg 87%
    01:00 +7°C° 0.9 mm 4 mps 704 mmHg 88%
    02:00 +7°C° 0.9 mm 5 mps 703 mmHg 90%
    03:00 +7°C° 0.9 mm 5 mps 702 mmHg 91%
    04:00 +7°C° 0.3 mm 5 mps 701 mmHg 90%
    05:00 +7°C° 0.3 mm 6 mps 700 mmHg 89%
    06:00 +8°C° 0.3 mm 6 mps 699 mmHg 88%
    07:00 +8°C° 0.9 mm 7 mps 699 mmHg 88%
    08:00 +8°C° 0.9 mm 7 mps 698 mmHg 88%
    09:00 +7°C° 0.9 mm 8 mps 698 mmHg 87%
    10:00 +7°C° 0.8 mm 8 mps 698 mmHg 79%
    11:00 +7°C° 0.8 mm 8 mps 698 mmHg 70%
    12:00 +7°C° 0.8 mm 8 mps 698 mmHg 61%
    13:00 +7°C° 0.2 mm 9 mps 699 mmHg 59%
    14:00 +7°C° 0.2 mm 9 mps 699 mmHg 58%
    15:00 +7°C° 0.2 mm 10 mps 699 mmHg 56%
    16:00 +7°C° 0.3 mm 9 mps 700 mmHg 58%
    17:00 +6°C° 0.3 mm 8 mps 700 mmHg 60%
    18:00 +5°C° 0.3 mm 7 mps 701 mmHg 62%
    19:00 +5°C° 0 mm 7 mps 701 mmHg 63%
    20:00 +5°C° 0 mm 7 mps 702 mmHg 63%
    21:00 +4°C° 0 mm 7 mps 703 mmHg 64%
    22:00 +4°C° 0 mm 7 mps 703 mmHg 66%
    23:00 +3°C° 0 mm 6 mps 704 mmHg 68%

    Tomorrow, 14 December, Friday

    Time Temperature Precipitation Wind Pressure Humidity
    00:00 +3°C° 0 mm 6 mps 704 mmHg 71%
    01:00 +3°C° 0 mm 5 mps 704 mmHg 73%
    02:00 +2°C° 0 mm 5 mps 705 mmHg 75%
    03:00 +2°C° 0 mm 5 mps 705 mmHg 77%
    04:00 +2°C° 0 mm 5 mps 705 mmHg 78%
    05:00 +3°C° 0 mm 4 mps 706 mmHg 80%
    06:00 +1°C° 0 mm 4 mps 706 mmHg 81%
    07:00 +3°C° 0 mm 4 mps 707 mmHg 79%
    08:00 +3°C° 0 mm 4 mps 708 mmHg 76%
    09:00 +4°C° 0 mm 4 mps 708 mmHg 74%
    10:00 +5°C° 0 mm 4 mps 708 mmHg 68%
    11:00 +7°C° 0 mm 5 mps 709 mmHg 62%
    12:00 +8°C° 0 mm 5 mps 709 mmHg 56%
    13:00 +10°C° 0 mm 4 mps 709 mmHg 54%
    14:00 +10°C° 0 mm 4 mps 709 mmHg 53%
    15:00 +10°C° 0 mm 4 mps 709 mmHg 51%
    16:00 +9°C° 0 mm 3 mps 709 mmHg 56%
    17:00 +8°C° 0 mm 3 mps 710 mmHg 62%
    18:00 +6°C° 0 mm 2 mps 710 mmHg 67%
    19:00 +6°C° 0 mm 2 mps 710 mmHg 69%
    20:00 +5°C° 0 mm 2 mps 711 mmHg 70%
    21:00 +6°C° 0 mm 1 mps 711 mmHg 72%
    22:00 +6°C° 0 mm 1 mps 711 mmHg 72%
    23:00 +6°C° 0 mm 1 mps 711 mmHg 73%

    Day after tomorrow, 15 December, Saturday

    Time Temperature Precipitation Wind Pressure Humidity
    00:00 +5°C° 0 mm 1 mps 711 mmHg 74%
    01:00 +5°C° 0 mm 1 mps 711 mmHg 74%
    02:00 +5°C° 0 mm 1 mps 711 mmHg 74%
    03:00 +5°C° 0 mm 1 mps 711 mmHg 75%
    04:00 +5°C° 0 mm 1 mps 711 mmHg 76%
    05:00 +5°C° 0 mm 1 mps 710 mmHg 77%
    06:00 +5°C° 0 mm 1 mps 710 mmHg 78%
    07:00 +5°C° 0 mm 1 mps 711 mmHg 75%
    08:00 +6°C° 0 mm 1 mps 711 mmHg 72%
    09:00 +7°C° 0 mm 1 mps 711 mmHg 69%
    10:00 +7°C° 0 mm 2 mps 711 mmHg 66%
    11:00 +9°C° 0 mm 2 mps 711 mmHg 63%
    12:00 +10°C° 0 mm 2 mps 711 mmHg 60%
    13:00 +11°C° 0 mm 3 mps 710 mmHg 61%
    14:00 +11°C° 0 mm 3 mps 710 mmHg 61%
    15:00 +12°C° 0 mm 3 mps 709 mmHg 62%
    16:00 +11°C° 0 mm 3 mps 709 mmHg 68%
    17:00 +10°C° 0 mm 3 mps 710 mmHg 73%
    18:00 +9°C° 0 mm 2 mps 710 mmHg 79%
    19:00 +9°C° 0 mm 3 mps 710 mmHg 82%
    20:00 +8°C° 0 mm 3 mps 709 mmHg 85%
    21:00 +8°C° 0 mm 3 mps 709 mmHg 88%
    22:00 +8°C° 0 mm 3 mps 709 mmHg 89%
    23:00 +7°C° 0 mm 3 mps 709 mmHg 90%

    16 December, Sunday

    Time Temperature Precipitation Wind Pressure Humidity
    00:00 +7°C° 0 mm 3 mps 708 mmHg 91%
    01:00 +7°C° 0.1 mm 3 mps 708 mmHg 91%
    02:00 +7°C° 0.1 mm 3 mps 708 mmHg 91%
    03:00 +7°C° 0.1 mm 3 mps 707 mmHg 91%
    04:00 +7°C° 0.7 mm 3 mps 707 mmHg 91%
    05:00 +7°C° 0.7 mm 3 mps 707 mmHg 91%
    06:00 +7°C° 0.7 mm 3 mps 707 mmHg 91%
    07:00 +7°C° 0.5 mm 4 mps 708 mmHg 91%
    08:00 +7°C° 0.5 mm 4 mps 708 mmHg 90%
    09:00 +7°C° 0.5 mm 4 mps 708 mmHg 90%
    10:00 +8°C° 0 mm 5 mps 708 mmHg 84%
    11:00 +9°C° 0 mm 5 mps 708 mmHg 78%
    12:00 +10°C° 0 mm 5 mps 709 mmHg 71%
    13:00 +10°C° 0 mm 5 mps 709 mmHg 67%
    14:00 +10°C° 0 mm 5 mps 709 mmHg 62%
    15:00 +10°C° 0 mm 5 mps 708 mmHg 58%
    16:00 +10°C° 0 mm 4 mps 709 mmHg 63%
    17:00 +9°C° 0 mm 3 mps 709 mmHg 69%
    18:00 +8°C° 0 mm 3 mps 710 mmHg 74%
    19:00 +8°C° 0 mm 3 mps 710 mmHg 77%
    20:00 +7°C° 0 mm 3 mps 711 mmHg 79%
    21:00 +7°C° 0 mm 3 mps 711 mmHg 81%
    22:00 +6°C° 0 mm 2 mps 711 mmHg 83%
    23:00 +6°C° 0 mm 2 mps 711 mmHg 84%

    17 December, Monday

    Time Temperature Precipitation Wind Pressure Humidity
    00:00 +6°C° 0 mm 2 mps 711 mmHg 86%
    01:00 +5°C° 0 mm 2 mps 711 mmHg 87%
    02:00 +5°C° 0 mm 2 mps 711 mmHg 88%
    03:00 +5°C° 0 mm 2 mps 711 mmHg 89%
    04:00 +4°C° 0 mm 2 mps 711 mmHg 90%
    05:00 +5°C° 0 mm 1 mps 711 mmHg 90%
    06:00 +5°C° 0 mm 1 mps 711 mmHg 91%
    07:00 +5°C° 0 mm 1 mps 711 mmHg 89%
    08:00 +6°C° 0 mm 1 mps 712 mmHg 87%
    09:00 +6°C° 0 mm 1 mps 712 mmHg 85%
    10:00 +8°C° 0 mm 1 mps 712 mmHg 79%
    11:00 +8°C° 0 mm 2 mps 712 mmHg 73%
    12:00 +9°C° 0 mm 2 mps 712 mmHg 67%
    13:00 +9°C° 0 mm 2 mps 712 mmHg 64%
    14:00 +9°C° 0 mm 2 mps 711 mmHg 62%
    15:00 +10°C° 0 mm 2 mps 711 mmHg 60%
    16:00 +9°C° 0 mm 2 mps 711 mmHg 66%
    17:00 +9°C° 0 mm 1 mps 711 mmHg 73%
    18:00 +7°C° 0 mm 1 mps 711 mmHg 79%
    19:00 +7°C° 0 mm 1 mps 711 mmHg 82%
    20:00 +7°C° 0 mm 1 mps 711 mmHg 84%
    21:00 +6°C° 0 mm 1 mps 711 mmHg 87%
    22:00 +6°C° 0 mm 1 mps 711 mmHg 87%
    23:00 +6°C° 0 mm 1 mps 711 mmHg 88%

    18 December, Tuesday

    Time Temperature Precipitation Wind Pressure Humidity
    00:00 +5°C° 0 mm 1 mps 711 mmHg 89%
    01:00 +5°C° 0 mm 1 mps 710 mmHg 89%
    02:00 +5°C° 0 mm 1 mps 710 mmHg 90%
    03:00 +5°C° 0 mm 1 mps 709 mmHg 90%
    04:00 +4°C° 0 mm 2 mps 709 mmHg 88%
    05:00 +4°C° 0 mm 2 mps 708 mmHg 87%
    06:00 +5°C° 0 mm 2 mps 708 mmHg 85%
    07:00 +5°C° 0.1 mm 2 mps 708 mmHg 82%
    08:00 +5°C° 0.1 mm 3 mps 707 mmHg 79%
    09:00 +5°C° 0.1 mm 3 mps 707 mmHg 76%
    10:00 +6°C° 0.2 mm 4 mps 707 mmHg 74%
    11:00 +6°C° 0.2 mm 4 mps 706 mmHg 72%
    12:00 +7°C° 0.2 mm 4 mps 706 mmHg 69%
    13:00 +7°C° 0.8 mm 4 mps 705 mmHg 73%
    14:00 +6°C° 0.8 mm 4 mps 705 mmHg 78%
    15:00 +7°C° 0.8 mm 3 mps 704 mmHg 82%
    16:00 +7°C° 1.3 mm 3 mps 704 mmHg 85%
    17:00 +7°C° 1.3 mm 3 mps 704 mmHg 88%
    18:00 +7°C° 1.3 mm 3 mps 704 mmHg 91%
    19:00 +7°C° 0.4 mm 3 mps 704 mmHg 92%
    20:00 +7°C° 0.4 mm 3 mps 705 mmHg 93%
    21:00 +7°C° 0.4 mm 3 mps 705 mmHg 94%
    22:00 +5°C° 0 mm 3 mps 705 mmHg 93%
    23:00 +6°C° 0 mm 2 mps 705 mmHg 93%
    Show more